<?xml version="1.0" encoding="UTF-8" standalone="yes"?>
<gpx
 xmlns="http://www.topografix.com/GPX/1/1"
 creator="OziExplorer Version 3956d - http://www.oziexplorer.com"
 version="1.1"
 xmlns:xsi="http://www.w3.org/2001/XMLSchema-instance"
 xsi:schemaLocation="http://www.topografix.com/GPX/1/1 http://www.topografix.com/GPX/1/1/gpx.xsd">
<metadata>
 <time>2015-09-23T14:57:25Z</time>
 <bounds minlat="31.774458" minlon="35.015788" maxlat="31.796163" maxlon="35.107707"/>
</metadata>
<wpt lat="31.7777150" lon="35.0160270">
 <time>2015-09-23T14:25:34.660Z</time>
 <name>1-start</name>
 <sym>Flag, Green</sym>
</wpt>
<wpt lat="31.7770000" lon="35.0318630">
 <time>2015-09-23T14:25:57.167Z</time>
 <name>2-napravo</name>
 <sym>Trail Head</sym>
</wpt>
<wpt lat="31.7822550" lon="35.0848150">
 <time>2015-09-23T14:26:35.693Z</time>
 <name>3-pramo</name>
 <sym>Trail Head</sym>
</wpt>
<wpt lat="31.7826570" lon="35.1076940">
 <time>2015-09-23T14:26:50.873Z</time>
 <name>4-razvorot</name>
 <sym>Trail Head</sym>
</wpt>
<wpt lat="31.7823680" lon="35.0852120">
 <time>2015-09-23T14:27:02.935Z</time>
 <name>5-napravo</name>
 <sym>Trail Head</sym>
</wpt>
<wpt lat="31.7855680" lon="35.0786410">
 <time>2015-09-23T14:27:16.180Z</time>
 <name>6-srezat-pramo</name>
 <sym>Trail Head</sym>
</wpt>
<wpt lat="31.7945830" lon="35.0954040">
 <time>2015-09-23T14:27:37.356Z</time>
 <name>7-pramo</name>
 <sym>Trail Head</sym>
</wpt>
<wpt lat="31.7928540" lon="35.1072700">
 <time>2015-09-23T14:27:46.601Z</time>
 <name>8-razvorot</name>
 <sym>Trail Head</sym>
</wpt>
<wpt lat="31.7946110" lon="35.0954580">
 <time>2015-09-23T14:28:02.006Z</time>
 <name>9-pravee</name>
 <sym>Trail Head</sym>
</wpt>
<wpt lat="31.7948420" lon="35.0859740">
 <time>2015-09-23T14:28:33.681Z</time>
 <name>10-nalevo</name>
 <sym>Trail Head</sym>
</wpt>
<wpt lat="31.7770570" lon="35.0319490">
 <time>2015-09-23T14:29:22.790Z</time>
 <name>11-napravo</name>
 <sym>Trail Head</sym>
</wpt>
<wpt lat="31.7776780" lon="35.0159040">
 <time>2015-09-23T14:29:37.789Z</time>
 <name>12-finish</name>
 <sym>Flag, Red</sym>
</wpt>
<trk>
 <name>Zuba-kesalon</name>
 <desc>zuba-kesalon</desc>
<trkseg>
<trkpt lat="31.7777050" lon="35.0160350">
<ele>274.990570</ele>
<time>2015-09-23T14:53:28.876Z</time>
</trkpt>
<trkpt lat="31.7781610" lon="35.0158790">
<ele>267.004791</ele>
<time>2015-09-23T14:53:28.876Z</time>
</trkpt>
<trkpt lat="31.7784670" lon="35.0161150">
<ele>268.985992</ele>
<time>2015-09-23T14:53:28.876Z</time>
</trkpt>
<trkpt lat="31.7784990" lon="35.0165440">
<ele>273.009369</ele>
<time>2015-09-23T14:53:28.876Z</time>
</trkpt>
<trkpt lat="31.7786260" lon="35.0168400">
<ele>275.996399</ele>
<time>2015-09-23T14:53:28.876Z</time>
</trkpt>
<trkpt lat="31.7788310" lon="35.0172310">
<ele>278.008087</ele>
<time>2015-09-23T14:53:28.876Z</time>
</trkpt>
<trkpt lat="31.7790590" lon="35.0175900">
<ele>278.983429</ele>
<time>2015-09-23T14:53:28.876Z</time>
</trkpt>
<trkpt lat="31.7793790" lon="35.0177780">
<ele>283.006805</ele>
<time>2015-09-23T14:53:28.876Z</time>
</trkpt>
<trkpt lat="31.7800080" lon="35.0179870">
<ele>284.988007</ele>
<time>2015-09-23T14:53:28.876Z</time>
</trkpt>
<trkpt lat="31.7804640" lon="35.0189320">
<ele>289.011353</ele>
<time>2015-09-23T14:53:28.876Z</time>
</trkpt>
<trkpt lat="31.7805690" lon="35.0195110">
<ele>289.011353</ele>
<time>2015-09-23T14:53:28.876Z</time>
</trkpt>
<trkpt lat="31.7805230" lon="35.0199080">
<ele>289.986725</ele>
<time>2015-09-23T14:53:28.876Z</time>
</trkpt>
<trkpt lat="31.7798570" lon="35.0211690">
<ele>296.997131</ele>
<time>2015-09-23T14:53:28.876Z</time>
</trkpt>
<trkpt lat="31.7793240" lon="35.0221230">
<ele>301.995850</ele>
<time>2015-09-23T14:53:28.876Z</time>
</trkpt>
<trkpt lat="31.7789270" lon="35.0230620">
<ele>305.988739</ele>
<time>2015-09-23T14:53:28.876Z</time>
</trkpt>
<trkpt lat="31.7786080" lon="35.0237600">
<ele>306.994568</ele>
<time>2015-09-23T14:53:28.876Z</time>
</trkpt>
<trkpt lat="31.7779970" lon="35.0246290">
<ele>311.993286</ele>
<time>2015-09-23T14:53:28.876Z</time>
</trkpt>
<trkpt lat="31.7776870" lon="35.0257980">
<ele>310.012085</ele>
<time>2015-09-23T14:53:28.876Z</time>
</trkpt>
<trkpt lat="31.7772670" lon="35.0261840">
<ele>317.997864</ele>
<time>2015-09-23T14:53:28.876Z</time>
</trkpt>
<trkpt lat="31.7771260" lon="35.0264420">
<ele>322.996552</ele>
<time>2015-09-23T14:53:28.876Z</time>
</trkpt>
<trkpt lat="31.7771300" lon="35.0266780">
<ele>322.996552</ele>
<time>2015-09-23T14:53:28.876Z</time>
</trkpt>
<trkpt lat="31.7772350" lon="35.0269570">
<ele>326.989441</ele>
<time>2015-09-23T14:53:28.876Z</time>
</trkpt>
<trkpt lat="31.7774910" lon="35.0272200">
<ele>326.014069</ele>
<time>2015-09-23T14:53:28.876Z</time>
</trkpt>
<trkpt lat="31.7780930" lon="35.0274500">
<ele>331.012787</ele>
<time>2015-09-23T14:53:28.876Z</time>
</trkpt>
<trkpt lat="31.7781880" lon="35.0276010">
<ele>331.012787</ele>
<time>2015-09-23T14:53:28.876Z</time>
</trkpt>
<trkpt lat="31.7781290" lon="35.0290220">
<ele>340.004395</ele>
<time>2015-09-23T14:53:28.876Z</time>
</trkpt>
<trkpt lat="31.7781150" lon="35.0299610">
<ele>342.991455</ele>
<time>2015-09-23T14:53:28.876Z</time>
</trkpt>
<trkpt lat="31.7777730" lon="35.0306800">
<ele>346.984314</ele>
<time>2015-09-23T14:53:28.876Z</time>
</trkpt>
<trkpt lat="31.7774590" lon="35.0309690">
<ele>342.016083</ele>
<time>2015-09-23T14:53:28.876Z</time>
</trkpt>
<trkpt lat="31.7772850" lon="35.0311680">
<ele>346.008942</ele>
<time>2015-09-23T14:53:28.876Z</time>
</trkpt>
<trkpt lat="31.7771710" lon="35.0314740">
<ele>345.003113</ele>
<time>2015-09-23T14:53:28.876Z</time>
</trkpt>
<trkpt lat="31.7770030" lon="35.0318710">
<ele>346.008942</ele>
<time>2015-09-23T14:53:28.876Z</time>
</trkpt>
<trkpt lat="31.7764100" lon="35.0322890">
<ele>353.994720</ele>
<time>2015-09-23T14:53:28.876Z</time>
</trkpt>
<trkpt lat="31.7762730" lon="35.0323000">
<ele>355.000549</ele>
<time>2015-09-23T14:53:28.876Z</time>
</trkpt>
<trkpt lat="31.7763050" lon="35.0320420">
<ele>357.012268</ele>
<time>2015-09-23T14:53:28.876Z</time>
</trkpt>
<trkpt lat="31.7761910" lon="35.0320050">
<ele>358.993469</ele>
<time>2015-09-23T14:53:28.876Z</time>
</trkpt>
<trkpt lat="31.7759630" lon="35.0322680">
<ele>358.993469</ele>
<time>2015-09-23T14:53:28.876Z</time>
</trkpt>
<trkpt lat="31.7753790" lon="35.0325250">
<ele>362.010956</ele>
<time>2015-09-23T14:53:28.876Z</time>
</trkpt>
<trkpt lat="31.7752330" lon="35.0324930">
<ele>363.992157</ele>
<time>2015-09-23T14:53:28.876Z</time>
</trkpt>
<trkpt lat="31.7752880" lon="35.0323530">
<ele>367.985046</ele>
<time>2015-09-23T14:53:28.876Z</time>
</trkpt>
<trkpt lat="31.7756260" lon="35.0322140">
<ele>364.997986</ele>
<time>2015-09-23T14:53:28.876Z</time>
</trkpt>
<trkpt lat="31.7757530" lon="35.0320640">
<ele>366.003845</ele>
<time>2015-09-23T14:53:28.876Z</time>
</trkpt>
<trkpt lat="31.7756620" lon="35.0319670">
<ele>369.996735</ele>
<time>2015-09-23T14:53:28.876Z</time>
</trkpt>
<trkpt lat="31.7754340" lon="35.0321170">
<ele>372.008392</ele>
<time>2015-09-23T14:53:28.876Z</time>
</trkpt>
<trkpt lat="31.7747410" lon="35.0323750">
<ele>385.998718</ele>
<time>2015-09-23T14:53:28.876Z</time>
</trkpt>
<trkpt lat="31.7745770" lon="35.0329000">
<ele>394.014954</ele>
<time>2015-09-23T14:53:28.876Z</time>
</trkpt>
<trkpt lat="31.7744580" lon="35.0335760">
<ele>404.987732</ele>
<time>2015-09-23T14:53:28.876Z</time>
</trkpt>
<trkpt lat="31.7745040" lon="35.0339090">
<ele>409.986481</ele>
<time>2015-09-23T14:53:28.876Z</time>
</trkpt>
<trkpt lat="31.7746400" lon="35.0339300">
<ele>406.999451</ele>
<time>2015-09-23T14:53:28.876Z</time>
</trkpt>
<trkpt lat="31.7749320" lon="35.0334910">
<ele>387.004547</ele>
<time>2015-09-23T14:53:28.876Z</time>
</trkpt>
<trkpt lat="31.7753250" lon="35.0332440">
<ele>382.005859</ele>
<time>2015-09-23T14:53:28.876Z</time>
</trkpt>
<trkpt lat="31.7757810" lon="35.0333400">
<ele>390.997467</ele>
<time>2015-09-23T14:53:28.876Z</time>
</trkpt>
<trkpt lat="31.7760180" lon="35.0335440">
<ele>399.989044</ele>
<time>2015-09-23T14:53:28.876Z</time>
</trkpt>
<trkpt lat="31.7767560" lon="35.0337800">
<ele>399.989044</ele>
<time>2015-09-23T14:53:28.876Z</time>
</trkpt>
<trkpt lat="31.7769850" lon="35.0340160">
<ele>399.989044</ele>
<time>2015-09-23T14:53:28.876Z</time>
</trkpt>
<trkpt lat="31.7771210" lon="35.0347240">
<ele>413.003998</ele>
<time>2015-09-23T14:53:28.876Z</time>
</trkpt>
<trkpt lat="31.7772030" lon="35.0352290">
<ele>423.001465</ele>
<time>2015-09-23T14:53:28.876Z</time>
</trkpt>
<trkpt lat="31.7773680" lon="35.0357540">
<ele>431.993042</ele>
<time>2015-09-23T14:53:28.876Z</time>
</trkpt>
<trkpt lat="31.7778510" lon="35.0363980">
<ele>429.006012</ele>
<time>2015-09-23T14:53:28.876Z</time>
</trkpt>
<trkpt lat="31.7781520" lon="35.0373960">
<ele>441.990479</ele>
<time>2015-09-23T14:53:28.876Z</time>
</trkpt>
<trkpt lat="31.7785620" lon="35.0384040">
<ele>446.989197</ele>
<time>2015-09-23T14:53:28.876Z</time>
</trkpt>
<trkpt lat="31.7789270" lon="35.0396700">
<ele>461.010010</ele>
<time>2015-09-23T14:53:28.876Z</time>
</trkpt>
<trkpt lat="31.7790460" lon="35.0399070">
<ele>462.015869</ele>
<time>2015-09-23T14:53:28.876Z</time>
</trkpt>
<trkpt lat="31.7793560" lon="35.0400780">
<ele>456.011261</ele>
<time>2015-09-23T14:53:28.876Z</time>
</trkpt>
<trkpt lat="31.7795110" lon="35.0402070">
<ele>457.992462</ele>
<time>2015-09-23T14:53:28.876Z</time>
</trkpt>
<trkpt lat="31.7796390" lon="35.0403460">
<ele>461.010010</ele>
<time>2015-09-23T14:53:28.876Z</time>
</trkpt>
<trkpt lat="31.7798480" lon="35.0405500">
<ele>465.002869</ele>
<time>2015-09-23T14:53:28.876Z</time>
</trkpt>
<trkpt lat="31.7801580" lon="35.0406250">
<ele>460.004150</ele>
<time>2015-09-23T14:53:28.876Z</time>
</trkpt>
<trkpt lat="31.7812070" lon="35.0412580">
<ele>462.991211</ele>
<time>2015-09-23T14:53:28.876Z</time>
</trkpt>
<trkpt lat="31.7814720" lon="35.0414510">
<ele>463.997040</ele>
<time>2015-09-23T14:53:28.876Z</time>
</trkpt>
<trkpt lat="31.7816180" lon="35.0418810">
<ele>479.999054</ele>
<time>2015-09-23T14:53:28.876Z</time>
</trkpt>
<trkpt lat="31.7821920" lon="35.0420420">
<ele>465.002869</ele>
<time>2015-09-23T14:53:28.876Z</time>
</trkpt>
<trkpt lat="31.7822930" lon="35.0421700">
<ele>466.008728</ele>
<time>2015-09-23T14:53:28.876Z</time>
</trkpt>
<trkpt lat="31.7823380" lon="35.0424490">
<ele>472.988647</ele>
<time>2015-09-23T14:53:28.876Z</time>
</trkpt>
<trkpt lat="31.7823750" lon="35.0433290">
<ele>491.002319</ele>
<time>2015-09-23T14:53:28.876Z</time>
</trkpt>
<trkpt lat="31.7824200" lon="35.0438010">
<ele>496.001068</ele>
<time>2015-09-23T14:53:28.876Z</time>
</trkpt>
<trkpt lat="31.7825210" lon="35.0441230">
<ele>496.001068</ele>
<time>2015-09-23T14:53:28.876Z</time>
</trkpt>
<trkpt lat="31.7828670" lon="35.0450130">
<ele>489.996460</ele>
<time>2015-09-23T14:53:28.876Z</time>
</trkpt>
<trkpt lat="31.7829040" lon="35.0454000">
<ele>491.002319</ele>
<time>2015-09-23T14:53:28.876Z</time>
</trkpt>
<trkpt lat="31.7826570" lon="35.0467940">
<ele>508.010132</ele>
<time>2015-09-23T14:53:28.876Z</time>
</trkpt>
<trkpt lat="31.7826030" lon="35.0478570">
<ele>517.001770</ele>
<time>2015-09-23T14:53:28.876Z</time>
</trkpt>
<trkpt lat="31.7827940" lon="35.0488970">
<ele>519.988770</ele>
<time>2015-09-23T14:53:28.876Z</time>
</trkpt>
<trkpt lat="31.7831040" lon="35.0497340">
<ele>517.001770</ele>
<time>2015-09-23T14:53:28.876Z</time>
</trkpt>
<trkpt lat="31.7831500" lon="35.0502490">
<ele>520.994629</ele>
<time>2015-09-23T14:53:28.876Z</time>
</trkpt>
<trkpt lat="31.7830590" lon="35.0530820">
<ele>547.999939</ele>
<time>2015-09-23T14:53:28.876Z</time>
</trkpt>
<trkpt lat="31.7827390" lon="35.0539830">
<ele>559.003174</ele>
<time>2015-09-23T14:53:28.876Z</time>
</trkpt>
<trkpt lat="31.7825570" lon="35.0548410">
<ele>561.014893</ele>
<time>2015-09-23T14:53:28.876Z</time>
</trkpt>
<trkpt lat="31.7824290" lon="35.0550450">
<ele>562.996094</ele>
<time>2015-09-23T14:53:28.876Z</time>
</trkpt>
<trkpt lat="31.7822100" lon="35.0552270">
<ele>562.996094</ele>
<time>2015-09-23T14:53:28.876Z</time>
</trkpt>
<trkpt lat="31.7818370" lon="35.0553350">
<ele>570.006470</ele>
<time>2015-09-23T14:53:28.876Z</time>
</trkpt>
<trkpt lat="31.7802860" lon="35.0552380">
<ele>586.008484</ele>
<time>2015-09-23T14:53:28.876Z</time>
</trkpt>
<trkpt lat="31.7790640" lon="35.0579310">
<ele>592.988403</ele>
<time>2015-09-23T14:53:28.876Z</time>
</trkpt>
<trkpt lat="31.7790550" lon="35.0581130">
<ele>593.994263</ele>
<time>2015-09-23T14:53:28.876Z</time>
</trkpt>
<trkpt lat="31.7792370" lon="35.0581990">
<ele>592.013062</ele>
<time>2015-09-23T14:53:28.876Z</time>
</trkpt>
<trkpt lat="31.7797660" lon="35.0581030">
<ele>585.002625</ele>
<time>2015-09-23T14:53:28.876Z</time>
</trkpt>
<trkpt lat="31.7800850" lon="35.0581990">
<ele>583.996826</ele>
<time>2015-09-23T14:53:28.876Z</time>
</trkpt>
<trkpt lat="31.7802950" lon="35.0583170">
<ele>581.985107</ele>
<time>2015-09-23T14:53:28.876Z</time>
</trkpt>
<trkpt lat="31.7803680" lon="35.0586180">
<ele>583.996826</ele>
<time>2015-09-23T14:53:28.876Z</time>
</trkpt>
<trkpt lat="31.7804410" lon="35.0592940">
<ele>588.995544</ele>
<time>2015-09-23T14:53:28.876Z</time>
</trkpt>
<trkpt lat="31.7804140" lon="35.0596690">
<ele>591.007202</ele>
<time>2015-09-23T14:53:28.876Z</time>
</trkpt>
<trkpt lat="31.7802590" lon="35.0610530">
<ele>592.013062</ele>
<time>2015-09-23T14:53:28.876Z</time>
</trkpt>
<trkpt lat="31.7797570" lon="35.0622980">
<ele>598.992920</ele>
<time>2015-09-23T14:53:28.876Z</time>
</trkpt>
<trkpt lat="31.7793740" lon="35.0629410">
<ele>608.015076</ele>
<time>2015-09-23T14:53:28.876Z</time>
</trkpt>
<trkpt lat="31.7791190" lon="35.0637460">
<ele>612.007935</ele>
<time>2015-09-23T14:53:28.876Z</time>
</trkpt>
<trkpt lat="31.7789820" lon="35.0640890">
<ele>616.000793</ele>
<time>2015-09-23T14:53:28.876Z</time>
</trkpt>
<trkpt lat="31.7789820" lon="35.0644970">
<ele>620.999512</ele>
<time>2015-09-23T14:53:28.876Z</time>
</trkpt>
<trkpt lat="31.7790370" lon="35.0646040">
<ele>622.005371</ele>
<time>2015-09-23T14:53:28.876Z</time>
</trkpt>
<trkpt lat="31.7794110" lon="35.0644540">
<ele>618.012451</ele>
<time>2015-09-23T14:53:28.876Z</time>
</trkpt>
<trkpt lat="31.7797750" lon="35.0642930">
<ele>616.000793</ele>
<time>2015-09-23T14:53:28.876Z</time>
</trkpt>
<trkpt lat="31.7804500" lon="35.0638000">
<ele>604.997498</ele>
<time>2015-09-23T14:53:28.876Z</time>
</trkpt>
<trkpt lat="31.7808150" lon="35.0636920">
<ele>603.991699</ele>
<time>2015-09-23T14:53:28.876Z</time>
</trkpt>
<trkpt lat="31.7809700" lon="35.0637350">
<ele>603.991699</ele>
<time>2015-09-23T14:53:28.876Z</time>
</trkpt>
<trkpt lat="31.7810430" lon="35.0639500">
<ele>607.009216</ele>
<time>2015-09-23T14:53:28.876Z</time>
</trkpt>
<trkpt lat="31.7810700" lon="35.0649150">
<ele>613.013733</ele>
<time>2015-09-23T14:53:28.876Z</time>
</trkpt>
<trkpt lat="31.7810890" lon="35.0656340">
<ele>612.007935</ele>
<time>2015-09-23T14:53:28.876Z</time>
</trkpt>
<trkpt lat="31.7810700" lon="35.0660310">
<ele>611.002075</ele>
<time>2015-09-23T14:53:28.876Z</time>
</trkpt>
<trkpt lat="31.7807150" lon="35.0666960">
<ele>616.000793</ele>
<time>2015-09-23T14:53:28.876Z</time>
</trkpt>
<trkpt lat="31.7802410" lon="35.0673720">
<ele>618.012451</ele>
<time>2015-09-23T14:53:28.876Z</time>
</trkpt>
<trkpt lat="31.7801580" lon="35.0675980">
<ele>618.987854</ele>
<time>2015-09-23T14:53:28.876Z</time>
</trkpt>
<trkpt lat="31.7801950" lon="35.0680050">
<ele>616.000793</ele>
<time>2015-09-23T14:53:28.876Z</time>
</trkpt>
<trkpt lat="31.7803320" lon="35.0683380">
<ele>608.990417</ele>
<time>2015-09-23T14:53:28.876Z</time>
</trkpt>
<trkpt lat="31.7803960" lon="35.0687670">
<ele>604.997498</ele>
<time>2015-09-23T14:53:28.876Z</time>
</trkpt>
<trkpt lat="31.7801950" lon="35.0699580">
<ele>602.010498</ele>
<time>2015-09-23T14:53:28.876Z</time>
</trkpt>
<trkpt lat="31.7796930" lon="35.0708380">
<ele>602.010498</ele>
<time>2015-09-23T14:53:28.876Z</time>
</trkpt>
<trkpt lat="31.7795200" lon="35.0711270">
<ele>604.997498</ele>
<time>2015-09-23T14:53:28.876Z</time>
</trkpt>
<trkpt lat="31.7794290" lon="35.0714390">
<ele>604.997498</ele>
<time>2015-09-23T14:53:28.876Z</time>
</trkpt>
<trkpt lat="31.7794650" lon="35.0719860">
<ele>599.998779</ele>
<time>2015-09-23T14:53:28.876Z</time>
</trkpt>
<trkpt lat="31.7794840" lon="35.0723720">
<ele>597.987122</ele>
<time>2015-09-23T14:53:28.876Z</time>
</trkpt>
<trkpt lat="31.7793920" lon="35.0729190">
<ele>601.004639</ele>
<time>2015-09-23T14:53:28.876Z</time>
</trkpt>
<trkpt lat="31.7793920" lon="35.0736170">
<ele>602.010498</ele>
<time>2015-09-23T14:53:28.876Z</time>
</trkpt>
<trkpt lat="31.7797300" lon="35.0741100">
<ele>597.011719</ele>
<time>2015-09-23T14:53:28.876Z</time>
</trkpt>
<trkpt lat="31.7798210" lon="35.0745070">
<ele>595.000061</ele>
<time>2015-09-23T14:53:28.876Z</time>
</trkpt>
<trkpt lat="31.7798030" lon="35.0749470">
<ele>596.005920</ele>
<time>2015-09-23T14:53:28.876Z</time>
</trkpt>
<trkpt lat="31.7795930" lon="35.0756760">
<ele>590.001343</ele>
<time>2015-09-23T14:53:28.876Z</time>
</trkpt>
<trkpt lat="31.7788910" lon="35.0764490">
<ele>595.000061</ele>
<time>2015-09-23T14:53:28.876Z</time>
</trkpt>
<trkpt lat="31.7788910" lon="35.0768140">
<ele>592.013062</ele>
<time>2015-09-23T14:53:28.876Z</time>
</trkpt>
<trkpt lat="31.7791190" lon="35.0773180">
<ele>583.996826</ele>
<time>2015-09-23T14:53:28.876Z</time>
</trkpt>
<trkpt lat="31.7791830" lon="35.0775860">
<ele>582.990967</ele>
<time>2015-09-23T14:53:28.876Z</time>
</trkpt>
<trkpt lat="31.7791640" lon="35.0779620">
<ele>586.983826</ele>
<time>2015-09-23T14:53:28.876Z</time>
</trkpt>
<trkpt lat="31.7791000" lon="35.0784770">
<ele>596.005920</ele>
<time>2015-09-23T14:53:28.876Z</time>
</trkpt>
<trkpt lat="31.7791830" lon="35.0786480">
<ele>597.987122</ele>
<time>2015-09-23T14:53:28.876Z</time>
</trkpt>
<trkpt lat="31.7792920" lon="35.0786810">
<ele>599.998779</ele>
<time>2015-09-23T14:53:28.876Z</time>
</trkpt>
<trkpt lat="31.7796840" lon="35.0784660">
<ele>597.011719</ele>
<time>2015-09-23T14:53:28.876Z</time>
</trkpt>
<trkpt lat="31.7800670" lon="35.0781440">
<ele>587.989685</ele>
<time>2015-09-23T14:53:28.876Z</time>
</trkpt>
<trkpt lat="31.7808790" lon="35.0778870">
<ele>585.002625</ele>
<time>2015-09-23T14:53:28.876Z</time>
</trkpt>
<trkpt lat="31.7814080" lon="35.0779290">
<ele>576.986389</ele>
<time>2015-09-23T14:53:28.876Z</time>
</trkpt>
<trkpt lat="31.7818180" lon="35.0781330">
<ele>573.999329</ele>
<time>2015-09-23T14:53:28.876Z</time>
</trkpt>
<trkpt lat="31.7823200" lon="35.0789700">
<ele>577.992249</ele>
<time>2015-09-23T14:53:28.876Z</time>
</trkpt>
<trkpt lat="31.7825750" lon="35.0792380">
<ele>575.005188</ele>
<time>2015-09-23T14:53:28.876Z</time>
</trkpt>
<trkpt lat="31.7832320" lon="35.0795820">
<ele>565.007751</ele>
<time>2015-09-23T14:53:28.876Z</time>
</trkpt>
<trkpt lat="31.7834140" lon="35.0797960">
<ele>565.007751</ele>
<time>2015-09-23T14:53:28.876Z</time>
</trkpt>
<trkpt lat="31.7835240" lon="35.0801400">
<ele>566.988953</ele>
<time>2015-09-23T14:53:28.876Z</time>
</trkpt>
<trkpt lat="31.7834960" lon="35.0811800">
<ele>569.000671</ele>
<time>2015-09-23T14:53:28.876Z</time>
</trkpt>
<trkpt lat="31.7832410" lon="35.0817920">
<ele>566.988953</ele>
<time>2015-09-23T14:53:28.876Z</time>
</trkpt>
<trkpt lat="31.7830860" lon="35.0823500">
<ele>573.999329</ele>
<time>2015-09-23T14:53:28.876Z</time>
</trkpt>
<trkpt lat="31.7822470" lon="35.0848070">
<ele>581.009766</ele>
<time>2015-09-23T14:53:28.876Z</time>
</trkpt>
<trkpt lat="31.7822930" lon="35.0852140">
<ele>582.990967</ele>
<time>2015-09-23T14:53:28.876Z</time>
</trkpt>
<trkpt lat="31.7825390" lon="35.0861260">
<ele>588.995544</ele>
<time>2015-09-23T14:53:28.876Z</time>
</trkpt>
<trkpt lat="31.7826660" lon="35.0872420">
<ele>598.992920</ele>
<time>2015-09-23T14:53:28.876Z</time>
</trkpt>
<trkpt lat="31.7827760" lon="35.0878640">
<ele>604.997498</ele>
<time>2015-09-23T14:53:28.876Z</time>
</trkpt>
<trkpt lat="31.7830270" lon="35.0887600">
<ele>609.996277</ele>
<time>2015-09-23T14:53:28.876Z</time>
</trkpt>
<trkpt lat="31.7832140" lon="35.0898010">
<ele>612.007935</ele>
<time>2015-09-23T14:53:28.876Z</time>
</trkpt>
<trkpt lat="31.7832500" lon="35.0921130">
<ele>628.009888</ele>
<time>2015-09-23T14:53:28.876Z</time>
</trkpt>
<trkpt lat="31.7826940" lon="35.0941460">
<ele>646.998962</ele>
<time>2015-09-23T14:53:28.876Z</time>
</trkpt>
<trkpt lat="31.7826390" lon="35.0948600">
<ele>646.998962</ele>
<time>2015-09-23T14:53:28.876Z</time>
</trkpt>
<trkpt lat="31.7822650" lon="35.0963400">
<ele>649.010681</ele>
<time>2015-09-23T14:53:28.876Z</time>
</trkpt>
<trkpt lat="31.7819320" lon="35.0975420">
<ele>655.990540</ele>
<time>2015-09-23T14:53:28.876Z</time>
</trkpt>
<trkpt lat="31.7819960" lon="35.0985990">
<ele>659.008118</ele>
<time>2015-09-23T14:53:28.876Z</time>
</trkpt>
<trkpt lat="31.7821100" lon="35.0994090">
<ele>656.996399</ele>
<time>2015-09-23T14:53:28.876Z</time>
</trkpt>
<trkpt lat="31.7822290" lon="35.1008680">
<ele>660.989319</ele>
<time>2015-09-23T14:53:28.876Z</time>
</trkpt>
<trkpt lat="31.7822380" lon="35.1018980">
<ele>666.993835</ele>
<time>2015-09-23T14:53:28.876Z</time>
</trkpt>
<trkpt lat="31.7820050" lon="35.1025520">
<ele>672.998413</ele>
<time>2015-09-23T14:53:28.876Z</time>
</trkpt>
<trkpt lat="31.7814490" lon="35.1036470">
<ele>679.002930</ele>
<time>2015-09-23T14:53:28.876Z</time>
</trkpt>
<trkpt lat="31.7814810" lon="35.1040540">
<ele>681.014648</ele>
<time>2015-09-23T14:53:28.876Z</time>
</trkpt>
<trkpt lat="31.7820650" lon="35.1057710">
<ele>689.000427</ele>
<time>2015-09-23T14:53:28.876Z</time>
</trkpt>
<trkpt lat="31.7826480" lon="35.1077070">
<ele>698.997864</ele>
<time>2015-09-23T14:53:28.876Z</time>
</trkpt>
<trkpt lat="31.7826980" lon="35.1076700">
<ele>697.992004</ele>
<time>2015-09-23T14:53:28.876Z</time>
</trkpt>
<trkpt lat="31.7815400" lon="35.1040700">
<ele>680.008789</ele>
<time>2015-09-23T14:53:28.876Z</time>
</trkpt>
<trkpt lat="31.7814990" lon="35.1036730">
<ele>679.002930</ele>
<time>2015-09-23T14:53:28.876Z</time>
</trkpt>
<trkpt lat="31.7820420" lon="35.1025740">
<ele>672.998413</ele>
<time>2015-09-23T14:53:28.876Z</time>
</trkpt>
<trkpt lat="31.7822930" lon="35.1019190">
<ele>665.012634</ele>
<time>2015-09-23T14:53:28.876Z</time>
</trkpt>
<trkpt lat="31.7822930" lon="35.1008620">
<ele>660.013916</ele>
<time>2015-09-23T14:53:28.876Z</time>
</trkpt>
<trkpt lat="31.7821510" lon="35.0994090">
<ele>655.990540</ele>
<time>2015-09-23T14:53:28.876Z</time>
</trkpt>
<trkpt lat="31.7820370" lon="35.0985720">
<ele>658.002258</ele>
<time>2015-09-23T14:53:28.876Z</time>
</trkpt>
<trkpt lat="31.7819960" lon="35.0975420">
<ele>654.984680</ele>
<time>2015-09-23T14:53:28.876Z</time>
</trkpt>
<trkpt lat="31.7826800" lon="35.0948760">
<ele>646.998962</ele>
<time>2015-09-23T14:53:28.876Z</time>
</trkpt>
<trkpt lat="31.7827490" lon="35.0941460">
<ele>646.998962</ele>
<time>2015-09-23T14:53:28.876Z</time>
</trkpt>
<trkpt lat="31.7833140" lon="35.0921180">
<ele>627.004089</ele>
<time>2015-09-23T14:53:28.876Z</time>
</trkpt>
<trkpt lat="31.7832640" lon="35.0897790">
<ele>609.996277</ele>
<time>2015-09-23T14:53:28.876Z</time>
</trkpt>
<trkpt lat="31.7830810" lon="35.0887600">
<ele>608.015076</ele>
<time>2015-09-23T14:53:28.876Z</time>
</trkpt>
<trkpt lat="31.7828170" lon="35.0878590">
<ele>603.991699</ele>
<time>2015-09-23T14:53:28.876Z</time>
</trkpt>
<trkpt lat="31.7827120" lon="35.0872260">
<ele>598.992920</ele>
<time>2015-09-23T14:53:28.876Z</time>
</trkpt>
<trkpt lat="31.7825940" lon="35.0861320">
<ele>591.007202</ele>
<time>2015-09-23T14:53:28.876Z</time>
</trkpt>
<trkpt lat="31.7823560" lon="35.0852200">
<ele>581.985107</ele>
<time>2015-09-23T14:53:28.876Z</time>
</trkpt>
<trkpt lat="31.7824800" lon="35.0850530">
<ele>578.998047</ele>
<time>2015-09-23T14:53:28.876Z</time>
</trkpt>
<trkpt lat="31.7826480" lon="35.0842430">
<ele>577.992249</ele>
<time>2015-09-23T14:53:28.876Z</time>
</trkpt>
<trkpt lat="31.7832050" lon="35.0830040">
<ele>576.986389</ele>
<time>2015-09-23T14:53:28.876Z</time>
</trkpt>
<trkpt lat="31.7844040" lon="35.0811050">
<ele>572.993530</ele>
<time>2015-09-23T14:53:28.876Z</time>
</trkpt>
<trkpt lat="31.7855670" lon="35.0786480">
<ele>583.996826</ele>
<time>2015-09-23T14:53:28.876Z</time>
</trkpt>
<trkpt lat="31.7854750" lon="35.0784390">
<ele>583.996826</ele>
<time>2015-09-23T14:53:28.876Z</time>
</trkpt>
<trkpt lat="31.7852660" lon="35.0783050">
<ele>586.008484</ele>
<time>2015-09-23T14:53:28.876Z</time>
</trkpt>
<trkpt lat="31.7849100" lon="35.0782300">
<ele>586.008484</ele>
<time>2015-09-23T14:53:28.876Z</time>
</trkpt>
<trkpt lat="31.7842850" lon="35.0778870">
<ele>578.998047</ele>
<time>2015-09-23T14:53:28.876Z</time>
</trkpt>
<trkpt lat="31.7839930" lon="35.0774520">
<ele>577.992249</ele>
<time>2015-09-23T14:53:28.876Z</time>
</trkpt>
<trkpt lat="31.7839300" lon="35.0772320">
<ele>576.986389</ele>
<time>2015-09-23T14:53:28.876Z</time>
</trkpt>
<trkpt lat="31.7840030" lon="35.0765510">
<ele>583.996826</ele>
<time>2015-09-23T14:53:28.876Z</time>
</trkpt>
<trkpt lat="31.7841390" lon="35.0759610">
<ele>586.008484</ele>
<time>2015-09-23T14:53:28.876Z</time>
</trkpt>
<trkpt lat="31.7843630" lon="35.0752470">
<ele>586.008484</ele>
<time>2015-09-23T14:53:28.876Z</time>
</trkpt>
<trkpt lat="31.7844900" lon="35.0742600">
<ele>578.998047</ele>
<time>2015-09-23T14:53:28.876Z</time>
</trkpt>
<trkpt lat="31.7845910" lon="35.0739330">
<ele>576.986389</ele>
<time>2015-09-23T14:53:28.876Z</time>
</trkpt>
<trkpt lat="31.7849330" lon="35.0733970">
<ele>576.986389</ele>
<time>2015-09-23T14:53:28.876Z</time>
</trkpt>
<trkpt lat="31.7851150" lon="35.0731390">
<ele>571.012329</ele>
<time>2015-09-23T14:53:28.876Z</time>
</trkpt>
<trkpt lat="31.7853300" lon="35.0729410">
<ele>565.007751</ele>
<time>2015-09-23T14:53:28.876Z</time>
</trkpt>
<trkpt lat="31.7855120" lon="35.0728120">
<ele>561.014893</ele>
<time>2015-09-23T14:53:28.876Z</time>
</trkpt>
<trkpt lat="31.7859310" lon="35.0726720">
<ele>559.003174</ele>
<time>2015-09-23T14:53:28.876Z</time>
</trkpt>
<trkpt lat="31.7860770" lon="35.0727260">
<ele>557.997375</ele>
<time>2015-09-23T14:53:28.876Z</time>
</trkpt>
<trkpt lat="31.7862050" lon="35.0729460">
<ele>564.001953</ele>
<time>2015-09-23T14:53:28.876Z</time>
</trkpt>
<trkpt lat="31.7863330" lon="35.0732250">
<ele>569.000671</ele>
<time>2015-09-23T14:53:28.876Z</time>
</trkpt>
<trkpt lat="31.7864420" lon="35.0735150">
<ele>571.987671</ele>
<time>2015-09-23T14:53:28.876Z</time>
</trkpt>
<trkpt lat="31.7866430" lon="35.0744270">
<ele>581.985107</ele>
<time>2015-09-23T14:53:28.876Z</time>
</trkpt>
<trkpt lat="31.7868480" lon="35.0750650">
<ele>586.008484</ele>
<time>2015-09-23T14:53:28.876Z</time>
</trkpt>
<trkpt lat="31.7868660" lon="35.0754570">
<ele>586.983826</ele>
<time>2015-09-23T14:53:28.876Z</time>
</trkpt>
<trkpt lat="31.7867930" lon="35.0756760">
<ele>590.001343</ele>
<time>2015-09-23T14:53:28.876Z</time>
</trkpt>
<trkpt lat="31.7865150" lon="35.0761060">
<ele>593.994263</ele>
<time>2015-09-23T14:53:28.876Z</time>
</trkpt>
<trkpt lat="31.7863510" lon="35.0763900">
<ele>593.994263</ele>
<time>2015-09-23T14:53:28.876Z</time>
</trkpt>
<trkpt lat="31.7862000" lon="35.0766790">
<ele>595.000061</ele>
<time>2015-09-23T14:53:28.876Z</time>
</trkpt>
<trkpt lat="31.7860960" lon="35.0769850">
<ele>592.013062</ele>
<time>2015-09-23T14:53:28.876Z</time>
</trkpt>
<trkpt lat="31.7859040" lon="35.0774200">
<ele>591.007202</ele>
<time>2015-09-23T14:53:28.876Z</time>
</trkpt>
<trkpt lat="31.7858400" lon="35.0777580">
<ele>588.995544</ele>
<time>2015-09-23T14:53:28.876Z</time>
</trkpt>
<trkpt lat="31.7858220" lon="35.0785300">
<ele>583.996826</ele>
<time>2015-09-23T14:53:28.876Z</time>
</trkpt>
<trkpt lat="31.7866880" lon="35.0799410">
<ele>586.983826</ele>
<time>2015-09-23T14:53:28.876Z</time>
</trkpt>
<trkpt lat="31.7879650" lon="35.0811050">
<ele>588.995544</ele>
<time>2015-09-23T14:53:28.876Z</time>
</trkpt>
<trkpt lat="31.7889820" lon="35.0816090">
<ele>588.995544</ele>
<time>2015-09-23T14:53:28.876Z</time>
</trkpt>
<trkpt lat="31.7898070" lon="35.0815990">
<ele>578.998047</ele>
<time>2015-09-23T14:53:28.876Z</time>
</trkpt>
<trkpt lat="31.7907510" lon="35.0822100">
<ele>576.011047</ele>
<time>2015-09-23T14:53:28.876Z</time>
</trkpt>
<trkpt lat="31.7921190" lon="35.0837070">
<ele>561.014893</ele>
<time>2015-09-23T14:53:28.876Z</time>
</trkpt>
<trkpt lat="31.7931170" lon="35.0846730">
<ele>550.986938</ele>
<time>2015-09-23T14:53:28.876Z</time>
</trkpt>
<trkpt lat="31.7932360" lon="35.0849520">
<ele>550.011597</ele>
<time>2015-09-23T14:53:28.876Z</time>
</trkpt>
<trkpt lat="31.7933180" lon="35.0853540">
<ele>547.999939</ele>
<time>2015-09-23T14:53:28.876Z</time>
</trkpt>
<trkpt lat="31.7935420" lon="35.0864160">
<ele>543.001221</ele>
<time>2015-09-23T14:53:28.876Z</time>
</trkpt>
<trkpt lat="31.7936370" lon="35.0874460">
<ele>540.989502</ele>
<time>2015-09-23T14:53:28.876Z</time>
</trkpt>
<trkpt lat="31.7936690" lon="35.0881330">
<ele>539.008301</ele>
<time>2015-09-23T14:53:28.876Z</time>
</trkpt>
<trkpt lat="31.7939110" lon="35.0890660">
<ele>535.015442</ele>
<time>2015-09-23T14:53:28.876Z</time>
</trkpt>
<trkpt lat="31.7940840" lon="35.0898810">
<ele>535.015442</ele>
<time>2015-09-23T14:53:28.876Z</time>
</trkpt>
<trkpt lat="31.7942660" lon="35.0902940">
<ele>535.015442</ele>
<time>2015-09-23T14:53:28.876Z</time>
</trkpt>
<trkpt lat="31.7944850" lon="35.0906700">
<ele>535.015442</ele>
<time>2015-09-23T14:53:28.876Z</time>
</trkpt>
<trkpt lat="31.7947540" lon="35.0913940">
<ele>535.015442</ele>
<time>2015-09-23T14:53:28.876Z</time>
</trkpt>
<trkpt lat="31.7951050" lon="35.0917640">
<ele>533.003723</ele>
<time>2015-09-23T14:53:28.876Z</time>
</trkpt>
<trkpt lat="31.7952560" lon="35.0921930">
<ele>534.009583</ele>
<time>2015-09-23T14:53:28.876Z</time>
</trkpt>
<trkpt lat="31.7953060" lon="35.0925050">
<ele>534.009583</ele>
<time>2015-09-23T14:53:28.876Z</time>
</trkpt>
<trkpt lat="31.7954290" lon="35.0927300">
<ele>535.015442</ele>
<time>2015-09-23T14:53:28.876Z</time>
</trkpt>
<trkpt lat="31.7955070" lon="35.0929600">
<ele>535.990784</ele>
<time>2015-09-23T14:53:28.876Z</time>
</trkpt>
<trkpt lat="31.7955430" lon="35.0933310">
<ele>536.996643</ele>
<time>2015-09-23T14:53:28.876Z</time>
</trkpt>
<trkpt lat="31.7955020" lon="35.0940760">
<ele>536.996643</ele>
<time>2015-09-23T14:53:28.876Z</time>
</trkpt>
<trkpt lat="31.7954060" lon="35.0943820">
<ele>539.008301</ele>
<time>2015-09-23T14:53:28.876Z</time>
</trkpt>
<trkpt lat="31.7951920" lon="35.0946720">
<ele>540.014160</ele>
<time>2015-09-23T14:53:28.876Z</time>
</trkpt>
<trkpt lat="31.7948320" lon="35.0950150">
<ele>539.008301</ele>
<time>2015-09-23T14:53:28.876Z</time>
</trkpt>
<trkpt lat="31.7945810" lon="35.0954120">
<ele>545.988281</ele>
<time>2015-09-23T14:53:28.876Z</time>
</trkpt>
<trkpt lat="31.7942440" lon="35.0955090">
<ele>546.994080</ele>
<time>2015-09-23T14:53:28.876Z</time>
</trkpt>
<trkpt lat="31.7939470" lon="35.0955300">
<ele>547.999939</ele>
<time>2015-09-23T14:53:28.876Z</time>
</trkpt>
<trkpt lat="31.7935320" lon="35.0954660">
<ele>549.005737</ele>
<time>2015-09-23T14:53:28.876Z</time>
</trkpt>
<trkpt lat="31.7933410" lon="35.0954070">
<ele>550.011597</ele>
<time>2015-09-23T14:53:28.876Z</time>
</trkpt>
<trkpt lat="31.7924240" lon="35.0952460">
<ele>549.005737</ele>
<time>2015-09-23T14:53:28.876Z</time>
</trkpt>
<trkpt lat="31.7922690" lon="35.0952190">
<ele>549.005737</ele>
<time>2015-09-23T14:53:28.876Z</time>
</trkpt>
<trkpt lat="31.7920370" lon="35.0950900">
<ele>547.999939</ele>
<time>2015-09-23T14:53:28.876Z</time>
</trkpt>
<trkpt lat="31.7914670" lon="35.0951650">
<ele>550.011597</ele>
<time>2015-09-23T14:53:28.876Z</time>
</trkpt>
<trkpt lat="31.7911200" lon="35.0953640">
<ele>550.986938</ele>
<time>2015-09-23T14:53:28.876Z</time>
</trkpt>
<trkpt lat="31.7907420" lon="35.0957610">
<ele>547.999939</ele>
<time>2015-09-23T14:53:28.876Z</time>
</trkpt>
<trkpt lat="31.7905960" lon="35.0960770">
<ele>547.999939</ele>
<time>2015-09-23T14:53:28.876Z</time>
</trkpt>
<trkpt lat="31.7903730" lon="35.0967370">
<ele>546.994080</ele>
<time>2015-09-23T14:53:28.876Z</time>
</trkpt>
<trkpt lat="31.7903680" lon="35.0969890">
<ele>547.999939</ele>
<time>2015-09-23T14:53:28.876Z</time>
</trkpt>
<trkpt lat="31.7903680" lon="35.0971880">
<ele>549.005737</ele>
<time>2015-09-23T14:53:28.876Z</time>
</trkpt>
<trkpt lat="31.7901860" lon="35.0981270">
<ele>550.986938</ele>
<time>2015-09-23T14:53:28.876Z</time>
</trkpt>
<trkpt lat="31.7900530" lon="35.0989530">
<ele>550.986938</ele>
<time>2015-09-23T14:53:28.876Z</time>
</trkpt>
<trkpt lat="31.7900220" lon="35.0994520">
<ele>552.998657</ele>
<time>2015-09-23T14:53:28.876Z</time>
</trkpt>
<trkpt lat="31.7901630" lon="35.0998490">
<ele>555.010315</ele>
<time>2015-09-23T14:53:28.876Z</time>
</trkpt>
<trkpt lat="31.7903860" lon="35.1002830">
<ele>557.997375</ele>
<time>2015-09-23T14:53:28.876Z</time>
</trkpt>
<trkpt lat="31.7910060" lon="35.1009480">
<ele>559.003174</ele>
<time>2015-09-23T14:53:28.876Z</time>
</trkpt>
<trkpt lat="31.7914990" lon="35.1014260">
<ele>560.009033</ele>
<time>2015-09-23T14:53:28.876Z</time>
</trkpt>
<trkpt lat="31.7922010" lon="35.1023320">
<ele>562.996094</ele>
<time>2015-09-23T14:53:28.876Z</time>
</trkpt>
<trkpt lat="31.7924150" lon="35.1030460">
<ele>561.014893</ele>
<time>2015-09-23T14:53:28.876Z</time>
</trkpt>
<trkpt lat="31.7924610" lon="35.1035820">
<ele>560.009033</ele>
<time>2015-09-23T14:53:28.876Z</time>
</trkpt>
<trkpt lat="31.7924560" lon="35.1042790">
<ele>559.003174</ele>
<time>2015-09-23T14:53:28.876Z</time>
</trkpt>
<trkpt lat="31.7923930" lon="35.1049230">
<ele>559.003174</ele>
<time>2015-09-23T14:53:28.876Z</time>
</trkpt>
<trkpt lat="31.7923930" lon="35.1054010">
<ele>561.990234</ele>
<time>2015-09-23T14:53:28.876Z</time>
</trkpt>
<trkpt lat="31.7924470" lon="35.1060390">
<ele>565.007751</ele>
<time>2015-09-23T14:53:28.876Z</time>
</trkpt>
<trkpt lat="31.7926110" lon="35.1066610">
<ele>566.988953</ele>
<time>2015-09-23T14:53:28.876Z</time>
</trkpt>
<trkpt lat="31.7928530" lon="35.1072730">
<ele>570.006470</ele>
<time>2015-09-23T14:53:28.876Z</time>
</trkpt>
<trkpt lat="31.7929030" lon="35.1072410">
<ele>569.000671</ele>
<time>2015-09-23T14:53:28.876Z</time>
</trkpt>
<trkpt lat="31.7926980" lon="35.1067200">
<ele>566.988953</ele>
<time>2015-09-23T14:53:28.876Z</time>
</trkpt>
<trkpt lat="31.7924970" lon="35.1060820">
<ele>564.001953</ele>
<time>2015-09-23T14:53:28.876Z</time>
</trkpt>
<trkpt lat="31.7924290" lon="35.1054010">
<ele>561.014893</ele>
<time>2015-09-23T14:53:28.876Z</time>
</trkpt>
<trkpt lat="31.7924430" lon="35.1049130">
<ele>559.003174</ele>
<time>2015-09-23T14:53:28.876Z</time>
</trkpt>
<trkpt lat="31.7924970" lon="35.1042790">
<ele>557.997375</ele>
<time>2015-09-23T14:53:28.876Z</time>
</trkpt>
<trkpt lat="31.7925160" lon="35.1035660">
<ele>559.003174</ele>
<time>2015-09-23T14:53:28.876Z</time>
</trkpt>
<trkpt lat="31.7924520" lon="35.1030190">
<ele>560.009033</ele>
<time>2015-09-23T14:53:28.876Z</time>
</trkpt>
<trkpt lat="31.7922510" lon="35.1023000">
<ele>562.996094</ele>
<time>2015-09-23T14:53:28.876Z</time>
</trkpt>
<trkpt lat="31.7917770" lon="35.1017210">
<ele>559.003174</ele>
<time>2015-09-23T14:53:28.876Z</time>
</trkpt>
<trkpt lat="31.7915260" lon="35.1014040">
<ele>560.009033</ele>
<time>2015-09-23T14:53:28.876Z</time>
</trkpt>
<trkpt lat="31.7904230" lon="35.1002510">
<ele>556.991516</ele>
<time>2015-09-23T14:53:28.876Z</time>
</trkpt>
<trkpt lat="31.7900580" lon="35.0994730">
<ele>552.998657</ele>
<time>2015-09-23T14:53:28.876Z</time>
</trkpt>
<trkpt lat="31.7901260" lon="35.0987060">
<ele>551.992798</ele>
<time>2015-09-23T14:53:28.876Z</time>
</trkpt>
<trkpt lat="31.7904000" lon="35.0971980">
<ele>549.005737</ele>
<time>2015-09-23T14:53:28.876Z</time>
</trkpt>
<trkpt lat="31.7904180" lon="35.0967370">
<ele>546.994080</ele>
<time>2015-09-23T14:53:28.876Z</time>
</trkpt>
<trkpt lat="31.7907740" lon="35.0958090">
<ele>546.994080</ele>
<time>2015-09-23T14:53:28.876Z</time>
</trkpt>
<trkpt lat="31.7911300" lon="35.0954390">
<ele>550.011597</ele>
<time>2015-09-23T14:53:28.876Z</time>
</trkpt>
<trkpt lat="31.7914850" lon="35.0952190">
<ele>550.011597</ele>
<time>2015-09-23T14:53:28.876Z</time>
</trkpt>
<trkpt lat="31.7920410" lon="35.0951550">
<ele>547.999939</ele>
<time>2015-09-23T14:53:28.876Z</time>
</trkpt>
<trkpt lat="31.7922560" lon="35.0952830">
<ele>549.005737</ele>
<time>2015-09-23T14:53:28.876Z</time>
</trkpt>
<trkpt lat="31.7933140" lon="35.0954600">
<ele>550.011597</ele>
<time>2015-09-23T14:53:28.876Z</time>
</trkpt>
<trkpt lat="31.7939340" lon="35.0955730">
<ele>547.999939</ele>
<time>2015-09-23T14:53:28.876Z</time>
</trkpt>
<trkpt lat="31.7942660" lon="35.0955620">
<ele>547.999939</ele>
<time>2015-09-23T14:53:28.876Z</time>
</trkpt>
<trkpt lat="31.7945860" lon="35.0954600">
<ele>545.988281</ele>
<time>2015-09-23T14:53:28.876Z</time>
</trkpt>
<trkpt lat="31.7951560" lon="35.0951810">
<ele>541.995361</ele>
<time>2015-09-23T14:53:28.876Z</time>
</trkpt>
<trkpt lat="31.7954660" lon="35.0948270">
<ele>540.989502</ele>
<time>2015-09-23T14:53:28.876Z</time>
</trkpt>
<trkpt lat="31.7957350" lon="35.0943020">
<ele>535.990784</ele>
<time>2015-09-23T14:53:28.876Z</time>
</trkpt>
<trkpt lat="31.7959720" lon="35.0934380">
<ele>536.996643</ele>
<time>2015-09-23T14:53:28.876Z</time>
</trkpt>
<trkpt lat="31.7961130" lon="35.0932230">
<ele>540.989502</ele>
<time>2015-09-23T14:53:28.876Z</time>
</trkpt>
<trkpt lat="31.7961630" lon="35.0930460">
<ele>543.001221</ele>
<time>2015-09-23T14:53:28.876Z</time>
</trkpt>
<trkpt lat="31.7960310" lon="35.0922790">
<ele>543.001221</ele>
<time>2015-09-23T14:53:28.876Z</time>
</trkpt>
<trkpt lat="31.7955800" lon="35.0916680">
<ele>539.008301</ele>
<time>2015-09-23T14:53:28.876Z</time>
</trkpt>
<trkpt lat="31.7953200" lon="35.0915010">
<ele>535.990784</ele>
<time>2015-09-23T14:53:28.876Z</time>
</trkpt>
<trkpt lat="31.7951830" lon="35.0913730">
<ele>534.009583</ele>
<time>2015-09-23T14:53:28.876Z</time>
</trkpt>
<trkpt lat="31.7949370" lon="35.0910290">
<ele>531.997925</ele>
<time>2015-09-23T14:53:28.876Z</time>
</trkpt>
<trkpt lat="31.7948000" lon="35.0906000">
<ele>533.003723</ele>
<time>2015-09-23T14:53:28.876Z</time>
</trkpt>
<trkpt lat="31.7946860" lon="35.0899780">
<ele>534.009583</ele>
<time>2015-09-23T14:53:28.876Z</time>
</trkpt>
<trkpt lat="31.7946360" lon="35.0893290">
<ele>531.997925</ele>
<time>2015-09-23T14:53:28.876Z</time>
</trkpt>
<trkpt lat="31.7946540" lon="35.0883950">
<ele>530.992065</ele>
<time>2015-09-23T14:53:28.876Z</time>
</trkpt>
<trkpt lat="31.7946860" lon="35.0873490">
<ele>530.992065</ele>
<time>2015-09-23T14:53:28.876Z</time>
</trkpt>
<trkpt lat="31.7947770" lon="35.0866360">
<ele>529.986267</ele>
<time>2015-09-23T14:53:28.876Z</time>
</trkpt>
<trkpt lat="31.7948500" lon="35.0861910">
<ele>528.005066</ele>
<time>2015-09-23T14:53:28.876Z</time>
</trkpt>
<trkpt lat="31.7948460" lon="35.0859650">
<ele>528.005066</ele>
<time>2015-09-23T14:53:28.876Z</time>
</trkpt>
<trkpt lat="31.7946130" lon="35.0859330">
<ele>526.999207</ele>
<time>2015-09-23T14:53:28.876Z</time>
</trkpt>
<trkpt lat="31.7945540" lon="35.0858580">
<ele>526.999207</ele>
<time>2015-09-23T14:53:28.876Z</time>
</trkpt>
<trkpt lat="31.7950370" lon="35.0838840">
<ele>517.001770</ele>
<time>2015-09-23T14:53:28.876Z</time>
</trkpt>
<trkpt lat="31.7951600" lon="35.0830360">
<ele>517.001770</ele>
<time>2015-09-23T14:53:28.876Z</time>
</trkpt>
<trkpt lat="31.7952010" lon="35.0823010">
<ele>518.007629</ele>
<time>2015-09-23T14:53:28.876Z</time>
</trkpt>
<trkpt lat="31.7950830" lon="35.0816680">
<ele>513.984253</ele>
<time>2015-09-23T14:53:28.876Z</time>
</trkpt>
<trkpt lat="31.7945040" lon="35.0810620">
<ele>513.008850</ele>
<time>2015-09-23T14:53:28.876Z</time>
</trkpt>
<trkpt lat="31.7943030" lon="35.0808370">
<ele>512.003052</ele>
<time>2015-09-23T14:53:28.876Z</time>
</trkpt>
<trkpt lat="31.7936510" lon="35.0804720">
<ele>513.984253</ele>
<time>2015-09-23T14:53:28.876Z</time>
</trkpt>
<trkpt lat="31.7932860" lon="35.0804880">
<ele>513.984253</ele>
<time>2015-09-23T14:53:28.876Z</time>
</trkpt>
<trkpt lat="31.7925700" lon="35.0805470">
<ele>515.995911</ele>
<time>2015-09-23T14:53:28.876Z</time>
</trkpt>
<trkpt lat="31.7919500" lon="35.0803970">
<ele>518.007629</ele>
<time>2015-09-23T14:53:28.876Z</time>
</trkpt>
<trkpt lat="31.7915580" lon="35.0801070">
<ele>515.995911</ele>
<time>2015-09-23T14:53:28.876Z</time>
</trkpt>
<trkpt lat="31.7912570" lon="35.0798710">
<ele>518.007629</ele>
<time>2015-09-23T14:53:28.876Z</time>
</trkpt>
<trkpt lat="31.7907650" lon="35.0795710">
<ele>520.994629</ele>
<time>2015-09-23T14:53:28.876Z</time>
</trkpt>
<trkpt lat="31.7903270" lon="35.0794260">
<ele>519.013428</ele>
<time>2015-09-23T14:53:28.876Z</time>
</trkpt>
<trkpt lat="31.7897980" lon="35.0793890">
<ele>515.995911</ele>
<time>2015-09-23T14:53:28.876Z</time>
</trkpt>
<trkpt lat="31.7893790" lon="35.0792870">
<ele>513.008850</ele>
<time>2015-09-23T14:53:28.876Z</time>
</trkpt>
<trkpt lat="31.7890640" lon="35.0791740">
<ele>510.997192</ele>
<time>2015-09-23T14:53:28.876Z</time>
</trkpt>
<trkpt lat="31.7888500" lon="35.0789330">
<ele>513.008850</ele>
<time>2015-09-23T14:53:28.876Z</time>
</trkpt>
<trkpt lat="31.7887310" lon="35.0785140">
<ele>509.991333</ele>
<time>2015-09-23T14:53:28.876Z</time>
</trkpt>
<trkpt lat="31.7886170" lon="35.0781760">
<ele>507.004333</ele>
<time>2015-09-23T14:53:28.876Z</time>
</trkpt>
<trkpt lat="31.7885030" lon="35.0777360">
<ele>505.998474</ele>
<time>2015-09-23T14:53:28.876Z</time>
</trkpt>
<trkpt lat="31.7885490" lon="35.0774520">
<ele>504.992645</ele>
<time>2015-09-23T14:53:28.876Z</time>
</trkpt>
<trkpt lat="31.7886580" lon="35.0771950">
<ele>504.992645</ele>
<time>2015-09-23T14:53:28.876Z</time>
</trkpt>
<trkpt lat="31.7887630" lon="35.0770230">
<ele>503.011444</ele>
<time>2015-09-23T14:53:28.876Z</time>
</trkpt>
<trkpt lat="31.7896520" lon="35.0760200">
<ele>497.006866</ele>
<time>2015-09-23T14:53:28.876Z</time>
</trkpt>
<trkpt lat="31.7909650" lon="35.0753120">
<ele>488.990662</ele>
<time>2015-09-23T14:53:28.876Z</time>
</trkpt>
<trkpt lat="31.7912020" lon="35.0752100">
<ele>489.996460</ele>
<time>2015-09-23T14:53:28.876Z</time>
</trkpt>
<trkpt lat="31.7913480" lon="35.0750110">
<ele>488.990662</ele>
<time>2015-09-23T14:53:28.876Z</time>
</trkpt>
<trkpt lat="31.7913990" lon="35.0747540">
<ele>491.002319</ele>
<time>2015-09-23T14:53:28.876Z</time>
</trkpt>
<trkpt lat="31.7913480" lon="35.0745390">
<ele>492.008148</ele>
<time>2015-09-23T14:53:28.876Z</time>
</trkpt>
<trkpt lat="31.7910610" lon="35.0742760">
<ele>488.015259</ele>
<time>2015-09-23T14:53:28.876Z</time>
</trkpt>
<trkpt lat="31.7907650" lon="35.0741100">
<ele>484.997742</ele>
<time>2015-09-23T14:53:28.876Z</time>
</trkpt>
<trkpt lat="31.7905460" lon="35.0739380">
<ele>488.015259</ele>
<time>2015-09-23T14:53:28.876Z</time>
</trkpt>
<trkpt lat="31.7903320" lon="35.0737450">
<ele>488.990662</ele>
<time>2015-09-23T14:53:28.876Z</time>
</trkpt>
<trkpt lat="31.7899620" lon="35.0732520">
<ele>483.991913</ele>
<time>2015-09-23T14:53:28.876Z</time>
</trkpt>
<trkpt lat="31.7896160" lon="35.0730590">
<ele>487.009460</ele>
<time>2015-09-23T14:53:28.876Z</time>
</trkpt>
<trkpt lat="31.7890590" lon="35.0726190">
<ele>483.991913</ele>
<time>2015-09-23T14:53:28.876Z</time>
</trkpt>
<trkpt lat="31.7888310" lon="35.0723830">
<ele>486.003601</ele>
<time>2015-09-23T14:53:28.876Z</time>
</trkpt>
<trkpt lat="31.7887450" lon="35.0720720">
<ele>484.997742</ele>
<time>2015-09-23T14:53:28.876Z</time>
</trkpt>
<trkpt lat="31.7887580" lon="35.0715140">
<ele>479.999054</ele>
<time>2015-09-23T14:53:28.876Z</time>
</trkpt>
<trkpt lat="31.7888360" lon="35.0708860">
<ele>477.011993</ele>
<time>2015-09-23T14:53:28.876Z</time>
</trkpt>
<trkpt lat="31.7887580" lon="35.0705270">
<ele>479.999054</ele>
<time>2015-09-23T14:53:28.876Z</time>
</trkpt>
<trkpt lat="31.7886540" lon="35.0703920">
<ele>479.999054</ele>
<time>2015-09-23T14:53:28.876Z</time>
</trkpt>
<trkpt lat="31.7885080" lon="35.0703280">
<ele>478.993195</ele>
<time>2015-09-23T14:53:28.876Z</time>
</trkpt>
<trkpt lat="31.7883850" lon="35.0703230">
<ele>477.011993</ele>
<time>2015-09-23T14:53:28.876Z</time>
</trkpt>
<trkpt lat="31.7880020" lon="35.0703870">
<ele>476.006134</ele>
<time>2015-09-23T14:53:28.876Z</time>
</trkpt>
<trkpt lat="31.7876820" lon="35.0704190">
<ele>476.006134</ele>
<time>2015-09-23T14:53:28.876Z</time>
</trkpt>
<trkpt lat="31.7872360" lon="35.0704940">
<ele>475.000336</ele>
<time>2015-09-23T14:53:28.876Z</time>
</trkpt>
<trkpt lat="31.7868300" lon="35.0705860">
<ele>472.988647</ele>
<time>2015-09-23T14:53:28.876Z</time>
</trkpt>
<trkpt lat="31.7865330" lon="35.0705530">
<ele>472.013275</ele>
<time>2015-09-23T14:53:28.876Z</time>
</trkpt>
<trkpt lat="31.7862320" lon="35.0704620">
<ele>470.001587</ele>
<time>2015-09-23T14:53:28.876Z</time>
</trkpt>
<trkpt lat="31.7857400" lon="35.0700970">
<ele>460.004150</ele>
<time>2015-09-23T14:53:28.876Z</time>
</trkpt>
<trkpt lat="31.7856300" lon="35.0699790">
<ele>458.998322</ele>
<time>2015-09-23T14:53:28.876Z</time>
</trkpt>
<trkpt lat="31.7855890" lon="35.0698350">
<ele>461.010010</ele>
<time>2015-09-23T14:53:28.876Z</time>
</trkpt>
<trkpt lat="31.7856490" lon="35.0694540">
<ele>461.010010</ele>
<time>2015-09-23T14:53:28.876Z</time>
</trkpt>
<trkpt lat="31.7857080" lon="35.0691480">
<ele>461.010010</ele>
<time>2015-09-23T14:53:28.876Z</time>
</trkpt>
<trkpt lat="31.7858040" lon="35.0689490">
<ele>457.992462</ele>
<time>2015-09-23T14:53:28.876Z</time>
</trkpt>
<trkpt lat="31.7859500" lon="35.0684670">
<ele>458.998322</ele>
<time>2015-09-23T14:53:28.876Z</time>
</trkpt>
<trkpt lat="31.7861640" lon="35.0679840">
<ele>457.992462</ele>
<time>2015-09-23T14:53:28.876Z</time>
</trkpt>
<trkpt lat="31.7861460" lon="35.0677530">
<ele>456.011261</ele>
<time>2015-09-23T14:53:28.876Z</time>
</trkpt>
<trkpt lat="31.7860730" lon="35.0674580">
<ele>452.993744</ele>
<time>2015-09-23T14:53:28.876Z</time>
</trkpt>
<trkpt lat="31.7859590" lon="35.0672220">
<ele>453.999603</ele>
<time>2015-09-23T14:53:28.876Z</time>
</trkpt>
<trkpt lat="31.7856760" lon="35.0672440">
<ele>451.012543</ele>
<time>2015-09-23T14:53:28.876Z</time>
</trkpt>
<trkpt lat="31.7853200" lon="35.0673610">
<ele>451.012543</ele>
<time>2015-09-23T14:53:28.876Z</time>
</trkpt>
<trkpt lat="31.7849740" lon="35.0673290">
<ele>451.987915</ele>
<time>2015-09-23T14:53:28.876Z</time>
</trkpt>
<trkpt lat="31.7847090" lon="35.0672540">
<ele>456.986664</ele>
<time>2015-09-23T14:53:28.876Z</time>
</trkpt>
<trkpt lat="31.7844540" lon="35.0671040">
<ele>458.998322</ele>
<time>2015-09-23T14:53:28.876Z</time>
</trkpt>
<trkpt lat="31.7843540" lon="35.0668570">
<ele>456.986664</ele>
<time>2015-09-23T14:53:28.876Z</time>
</trkpt>
<trkpt lat="31.7843450" lon="35.0665030">
<ele>455.005463</ele>
<time>2015-09-23T14:53:28.876Z</time>
</trkpt>
<trkpt lat="31.7844900" lon="35.0660740">
<ele>455.005463</ele>
<time>2015-09-23T14:53:28.876Z</time>
</trkpt>
<trkpt lat="31.7846090" lon="35.0656340">
<ele>456.011261</ele>
<time>2015-09-23T14:53:28.876Z</time>
</trkpt>
<trkpt lat="31.7848370" lon="35.0653610">
<ele>452.993744</ele>
<time>2015-09-23T14:53:28.876Z</time>
</trkpt>
<trkpt lat="31.7851740" lon="35.0650980">
<ele>447.995056</ele>
<time>2015-09-23T14:53:28.876Z</time>
</trkpt>
<trkpt lat="31.7855850" lon="35.0646790">
<ele>452.993744</ele>
<time>2015-09-23T14:53:28.876Z</time>
</trkpt>
<trkpt lat="31.7858130" lon="35.0645130">
<ele>451.987915</ele>
<time>2015-09-23T14:53:28.876Z</time>
</trkpt>
<trkpt lat="31.7868020" lon="35.0639930">
<ele>442.996338</ele>
<time>2015-09-23T14:53:28.876Z</time>
</trkpt>
<trkpt lat="31.7872080" lon="35.0637350">
<ele>440.984650</ele>
<time>2015-09-23T14:53:28.876Z</time>
</trkpt>
<trkpt lat="31.7872810" lon="35.0635530">
<ele>440.009277</ele>
<time>2015-09-23T14:53:28.876Z</time>
</trkpt>
<trkpt lat="31.7872860" lon="35.0632200">
<ele>440.009277</ele>
<time>2015-09-23T14:53:28.876Z</time>
</trkpt>
<trkpt lat="31.7871350" lon="35.0624050">
<ele>446.989197</ele>
<time>2015-09-23T14:53:28.876Z</time>
</trkpt>
<trkpt lat="31.7870350" lon="35.0619760">
<ele>447.995056</ele>
<time>2015-09-23T14:53:28.876Z</time>
</trkpt>
<trkpt lat="31.7868980" lon="35.0616000">
<ele>446.989197</ele>
<time>2015-09-23T14:53:28.876Z</time>
</trkpt>
<trkpt lat="31.7867800" lon="35.0612030">
<ele>444.002136</ele>
<time>2015-09-23T14:53:28.876Z</time>
</trkpt>
<trkpt lat="31.7865330" lon="35.0607580">
<ele>440.984650</ele>
<time>2015-09-23T14:53:28.876Z</time>
</trkpt>
<trkpt lat="31.7859040" lon="35.0595620">
<ele>436.991760</ele>
<time>2015-09-23T14:53:28.876Z</time>
</trkpt>
<trkpt lat="31.7859950" lon="35.0580060">
<ele>435.010559</ele>
<time>2015-09-23T14:53:28.876Z</time>
</trkpt>
<trkpt lat="31.7859500" lon="35.0576840">
<ele>430.987213</ele>
<time>2015-09-23T14:53:28.876Z</time>
</trkpt>
<trkpt lat="31.7858450" lon="35.0573520">
<ele>425.988464</ele>
<time>2015-09-23T14:53:28.876Z</time>
</trkpt>
<trkpt lat="31.7857400" lon="35.0571480">
<ele>428.000153</ele>
<time>2015-09-23T14:53:28.876Z</time>
</trkpt>
<trkpt lat="31.7855620" lon="35.0569650">
<ele>430.011841</ele>
<time>2015-09-23T14:53:28.876Z</time>
</trkpt>
<trkpt lat="31.7852930" lon="35.0566860">
<ele>429.006012</ele>
<time>2015-09-23T14:53:28.876Z</time>
</trkpt>
<trkpt lat="31.7851880" lon="35.0565360">
<ele>429.006012</ele>
<time>2015-09-23T14:53:28.876Z</time>
</trkpt>
<trkpt lat="31.7851290" lon="35.0563430">
<ele>430.011841</ele>
<time>2015-09-23T14:53:28.876Z</time>
</trkpt>
<trkpt lat="31.7850560" lon="35.0556350">
<ele>430.987213</ele>
<time>2015-09-23T14:53:28.876Z</time>
</trkpt>
<trkpt lat="31.7851290" lon="35.0552760">
<ele>431.993042</ele>
<time>2015-09-23T14:53:28.876Z</time>
</trkpt>
<trkpt lat="31.7852430" lon="35.0547660">
<ele>432.998871</ele>
<time>2015-09-23T14:53:28.876Z</time>
</trkpt>
<trkpt lat="31.7854440" lon="35.0542290">
<ele>430.987213</ele>
<time>2015-09-23T14:53:28.876Z</time>
</trkpt>
<trkpt lat="31.7857220" lon="35.0537250">
<ele>423.001465</ele>
<time>2015-09-23T14:53:28.876Z</time>
</trkpt>
<trkpt lat="31.7860320" lon="35.0531030">
<ele>419.983917</ele>
<time>2015-09-23T14:53:28.876Z</time>
</trkpt>
<trkpt lat="31.7861870" lon="35.0524910">
<ele>421.995605</ele>
<time>2015-09-23T14:53:28.876Z</time>
</trkpt>
<trkpt lat="31.7861230" lon="35.0516550">
<ele>418.002716</ele>
<time>2015-09-23T14:53:28.876Z</time>
</trkpt>
<trkpt lat="31.7861590" lon="35.0511930">
<ele>415.015686</ele>
<time>2015-09-23T14:53:28.876Z</time>
</trkpt>
<trkpt lat="31.7862730" lon="35.0504480">
<ele>411.998138</ele>
<time>2015-09-23T14:53:28.876Z</time>
</trkpt>
<trkpt lat="31.7862280" lon="35.0502220">
<ele>410.992340</ele>
<time>2015-09-23T14:53:28.876Z</time>
</trkpt>
<trkpt lat="31.7860860" lon="35.0498470">
<ele>409.011139</ele>
<time>2015-09-23T14:53:28.876Z</time>
</trkpt>
<trkpt lat="31.7858130" lon="35.0485650">
<ele>399.989044</ele>
<time>2015-09-23T14:53:28.876Z</time>
</trkpt>
<trkpt lat="31.7854020" lon="35.0475450">
<ele>404.012390</ele>
<time>2015-09-23T14:53:28.876Z</time>
</trkpt>
<trkpt lat="31.7852750" lon="35.0471060">
<ele>400.994873</ele>
<time>2015-09-23T14:53:28.876Z</time>
</trkpt>
<trkpt lat="31.7852660" lon="35.0462370">
<ele>397.002014</ele>
<time>2015-09-23T14:53:28.876Z</time>
</trkpt>
<trkpt lat="31.7851930" lon="35.0454800">
<ele>395.996155</ele>
<time>2015-09-23T14:53:28.876Z</time>
</trkpt>
<trkpt lat="31.7850830" lon="35.0449170">
<ele>395.996155</ele>
<time>2015-09-23T14:53:28.876Z</time>
</trkpt>
<trkpt lat="31.7849740" lon="35.0441500">
<ele>392.003265</ele>
<time>2015-09-23T14:53:28.876Z</time>
</trkpt>
<trkpt lat="31.7848100" lon="35.0433290">
<ele>394.014954</ele>
<time>2015-09-23T14:53:28.876Z</time>
</trkpt>
<trkpt lat="31.7847640" lon="35.0429860">
<ele>394.990326</ele>
<time>2015-09-23T14:53:28.876Z</time>
</trkpt>
<trkpt lat="31.7847640" lon="35.0425670">
<ele>393.009125</ele>
<time>2015-09-23T14:53:28.876Z</time>
</trkpt>
<trkpt lat="31.7847090" lon="35.0422990">
<ele>392.003265</ele>
<time>2015-09-23T14:53:28.876Z</time>
</trkpt>
<trkpt lat="31.7844180" lon="35.0416230">
<ele>389.991608</ele>
<time>2015-09-23T14:53:28.876Z</time>
</trkpt>
<trkpt lat="31.7840070" lon="35.0408940">
<ele>382.005859</ele>
<time>2015-09-23T14:53:28.876Z</time>
</trkpt>
<trkpt lat="31.7837610" lon="35.0407000">
<ele>382.005859</ele>
<time>2015-09-23T14:53:28.876Z</time>
</trkpt>
<trkpt lat="31.7831320" lon="35.0404110">
<ele>381.000000</ele>
<time>2015-09-23T14:53:28.876Z</time>
</trkpt>
<trkpt lat="31.7821970" lon="35.0402610">
<ele>385.998718</ele>
<time>2015-09-23T14:53:28.876Z</time>
</trkpt>
<trkpt lat="31.7814440" lon="35.0396700">
<ele>378.988342</ele>
<time>2015-09-23T14:53:28.876Z</time>
</trkpt>
<trkpt lat="31.7810610" lon="35.0393700">
<ele>373.989594</ele>
<time>2015-09-23T14:53:28.876Z</time>
</trkpt>
<trkpt lat="31.7801490" lon="35.0381900">
<ele>368.990875</ele>
<time>2015-09-23T14:53:28.876Z</time>
</trkpt>
<trkpt lat="31.7798670" lon="35.0377340">
<ele>367.985046</ele>
<time>2015-09-23T14:53:28.876Z</time>
</trkpt>
<trkpt lat="31.7797210" lon="35.0372670">
<ele>369.996735</ele>
<time>2015-09-23T14:53:28.876Z</time>
</trkpt>
<trkpt lat="31.7796160" lon="35.0367950">
<ele>369.996735</ele>
<time>2015-09-23T14:53:28.876Z</time>
</trkpt>
<trkpt lat="31.7796390" lon="35.0362910">
<ele>363.992157</ele>
<time>2015-09-23T14:53:28.876Z</time>
</trkpt>
<trkpt lat="31.7796750" lon="35.0356260">
<ele>357.987610</ele>
<time>2015-09-23T14:53:28.876Z</time>
</trkpt>
<trkpt lat="31.7796840" lon="35.0354060">
<ele>357.012268</ele>
<time>2015-09-23T14:53:28.876Z</time>
</trkpt>
<trkpt lat="31.7795380" lon="35.0349930">
<ele>353.994720</ele>
<time>2015-09-23T14:53:28.876Z</time>
</trkpt>
<trkpt lat="31.7792690" lon="35.0347410">
<ele>352.988861</ele>
<time>2015-09-23T14:53:28.876Z</time>
</trkpt>
<trkpt lat="31.7788540" lon="35.0343920">
<ele>355.000549</ele>
<time>2015-09-23T14:53:28.876Z</time>
</trkpt>
<trkpt lat="31.7785170" lon="35.0341130">
<ele>353.994720</ele>
<time>2015-09-23T14:53:28.876Z</time>
</trkpt>
<trkpt lat="31.7782610" lon="35.0335500">
<ele>351.007660</ele>
<time>2015-09-23T14:53:28.876Z</time>
</trkpt>
<trkpt lat="31.7778140" lon="35.0327400">
<ele>350.001862</ele>
<time>2015-09-23T14:53:28.876Z</time>
</trkpt>
<trkpt lat="31.7770530" lon="35.0319510">
<ele>345.003113</ele>
<time>2015-09-23T14:53:28.876Z</time>
</trkpt>
<trkpt lat="31.7773270" lon="35.0312160">
<ele>343.997284</ele>
<time>2015-09-23T14:53:28.876Z</time>
</trkpt>
<trkpt lat="31.7774820" lon="35.0310280">
<ele>341.010254</ele>
<time>2015-09-23T14:53:28.876Z</time>
</trkpt>
<trkpt lat="31.7778190" lon="35.0307280">
<ele>346.984314</ele>
<time>2015-09-23T14:53:28.876Z</time>
</trkpt>
<trkpt lat="31.7781700" lon="35.0300570">
<ele>342.991455</ele>
<time>2015-09-23T14:53:28.876Z</time>
</trkpt>
<trkpt lat="31.7782520" lon="35.0275740">
<ele>330.006958</ele>
<time>2015-09-23T14:53:28.876Z</time>
</trkpt>
<trkpt lat="31.7781430" lon="35.0274340">
<ele>331.012787</ele>
<time>2015-09-23T14:53:28.876Z</time>
</trkpt>
<trkpt lat="31.7775140" lon="35.0271450">
<ele>324.002411</ele>
<time>2015-09-23T14:53:28.876Z</time>
</trkpt>
<trkpt lat="31.7772670" lon="35.0268980">
<ele>324.002411</ele>
<time>2015-09-23T14:53:28.876Z</time>
</trkpt>
<trkpt lat="31.7771850" lon="35.0266350">
<ele>321.015350</ele>
<time>2015-09-23T14:53:28.876Z</time>
</trkpt>
<trkpt lat="31.7771850" lon="35.0264360">
<ele>321.015350</ele>
<time>2015-09-23T14:53:28.876Z</time>
</trkpt>
<trkpt lat="31.7773220" lon="35.0262380">
<ele>316.016663</ele>
<time>2015-09-23T14:53:28.876Z</time>
</trkpt>
<trkpt lat="31.7777140" lon="35.0258790">
<ele>310.987427</ele>
<time>2015-09-23T14:53:28.876Z</time>
</trkpt>
<trkpt lat="31.7780470" lon="35.0246720">
<ele>310.012085</ele>
<time>2015-09-23T14:53:28.876Z</time>
</trkpt>
<trkpt lat="31.7786720" lon="35.0238080">
<ele>306.994568</ele>
<time>2015-09-23T14:53:28.876Z</time>
</trkpt>
<trkpt lat="31.7793600" lon="35.0221820">
<ele>301.995850</ele>
<time>2015-09-23T14:53:28.876Z</time>
</trkpt>
<trkpt lat="31.7798800" lon="35.0212220">
<ele>295.991272</ele>
<time>2015-09-23T14:53:28.876Z</time>
</trkpt>
<trkpt lat="31.7805640" lon="35.0199560">
<ele>289.986725</ele>
<time>2015-09-23T14:53:28.876Z</time>
</trkpt>
<trkpt lat="31.7806280" lon="35.0195270">
<ele>288.005524</ele>
<time>2015-09-23T14:53:28.876Z</time>
</trkpt>
<trkpt lat="31.7805320" lon="35.0189370">
<ele>288.005524</ele>
<time>2015-09-23T14:53:28.876Z</time>
</trkpt>
<trkpt lat="31.7800720" lon="35.0179610">
<ele>285.993835</ele>
<time>2015-09-23T14:53:28.876Z</time>
</trkpt>
<trkpt lat="31.7799170" lon="35.0178850">
<ele>284.988007</ele>
<time>2015-09-23T14:53:28.876Z</time>
</trkpt>
<trkpt lat="31.7794150" lon="35.0177250">
<ele>282.000977</ele>
<time>2015-09-23T14:53:28.876Z</time>
</trkpt>
<trkpt lat="31.7791050" lon="35.0175370">
<ele>277.002228</ele>
<time>2015-09-23T14:53:28.876Z</time>
</trkpt>
<trkpt lat="31.7788820" lon="35.0171930">
<ele>278.008087</ele>
<time>2015-09-23T14:53:28.876Z</time>
</trkpt>
<trkpt lat="31.7786720" lon="35.0168130">
<ele>275.996399</ele>
<time>2015-09-23T14:53:28.876Z</time>
</trkpt>
<trkpt lat="31.7785670" lon="35.0165390">
<ele>273.009369</ele>
<time>2015-09-23T14:53:28.876Z</time>
</trkpt>
<trkpt lat="31.7785300" lon="35.0160780">
<ele>268.985992</ele>
<time>2015-09-23T14:53:28.876Z</time>
</trkpt>
<trkpt lat="31.7781570" lon="35.0157880">
<ele>267.004791</ele>
<time>2015-09-23T14:53:28.876Z</time>
</trkpt>
<trkpt lat="31.7776730" lon="35.0159110">
<ele>274.015198</ele>
<time>2015-09-23T14:53:28.876Z</time>
</trkpt>
</trkseg>
</trk>
</gpx>
